Hourly Weather Red Deer

Today, 26 January, Tuesday

Time Temperature Precipitation Wind Pressure Humidity
00:00 -30°C° 0 mm 3 mps 679 mmHg 98%
01:00 -30°C° 0 mm 3 mps 679 mmHg 97%
02:00 -30°C° 0 mm 3 mps 679 mmHg 98%
03:00 -30°C° 0 mm 3 mps 678 mmHg 98%
04:00 -30°C° 0 mm 3 mps 678 mmHg 98%
05:00 -29°C° 0 mm 3 mps 678 mmHg 98%
06:00 -29°C° 0 mm 3 mps 678 mmHg 98%
07:00 -29°C° 0 mm 3 mps 678 mmHg 98%
08:00 -27°C° 0 mm 3 mps 678 mmHg 97%
09:00 -26°C° 0 mm 3 mps 678 mmHg 97%
10:00 -26°C° 0 mm 3 mps 678 mmHg 97%
11:00 -25°C° 0 mm 3 mps 678 mmHg 96%
12:00 -24°C° 0 mm 3 mps 678 mmHg 96%
13:00 -23°C° 0 mm 3 mps 678 mmHg 96%
14:00 -24°C° 0 mm 3 mps 678 mmHg 97%
15:00 -25°C° 0 mm 3 mps 678 mmHg 97%
16:00 -24°C° 0 mm 2 mps 678 mmHg 98%
17:00 -25°C° 0 mm 2 mps 678 mmHg 98%
18:00 -25°C° 0 mm 2 mps 678 mmHg 98%
19:00 -25°C° 0 mm 2 mps 679 mmHg 98%
20:00 -26°C° 0 mm 2 mps 679 mmHg 98%
21:00 -26°C° 0 mm 2 mps 679 mmHg 98%
22:00 -23°C° 0 mm 1 mps 679 mmHg 98%
23:00 -23°C° 0 mm 1 mps 679 mmHg 99%

Tomorrow, 27 January, Wednesday

Time Temperature Precipitation Wind Pressure Humidity
00:00 -23°C° 0 mm 1 mps 679 mmHg 99%
01:00 -23°C° 0 mm 1 mps 679 mmHg 99%
02:00 -23°C° 0 mm 0 mps 679 mmHg 99%
03:00 -22°C° 0 mm 0 mps 679 mmHg 99%
04:00 -22°C° 0 mm 0 mps 680 mmHg 99%
05:00 -22°C° 0 mm 0 mps 680 mmHg 99%
06:00 -22°C° 0 mm 0 mps 680 mmHg 99%
07:00 -22°C° 0 mm 0 mps 680 mmHg 99%
08:00 -21°C° 0 mm 0 mps 680 mmHg 98%
09:00 -20°C° 0 mm 0 mps 680 mmHg 97%
10:00 -20°C° 0 mm 1 mps 680 mmHg 95%
11:00 -19°C° 0 mm 1 mps 680 mmHg 94%
12:00 -18°C° 0 mm 1 mps 680 mmHg 93%
13:00 -18°C° 0 mm 1 mps 680 mmHg 91%
14:00 -18°C° 0 mm 1 mps 680 mmHg 93%
15:00 -18°C° 0 mm 1 mps 680 mmHg 95%
16:00 -19°C° 0 mm 1 mps 680 mmHg 97%
17:00 -18°C° 0.2 mm 1 mps 680 mmHg 97%
18:00 -18°C° 0.2 mm 1 mps 680 mmHg 97%
19:00 -18°C° 0.2 mm 1 mps 680 mmHg 97%
20:00 -18°C° 0.2 mm 1 mps 680 mmHg 97%
21:00 -18°C° 0.2 mm 1 mps 680 mmHg 97%
22:00 -18°C° 0.2 mm 1 mps 680 mmHg 97%
23:00 -19°C° 0 mm 1 mps 680 mmHg 97%

Day after tomorrow, 28 January, Thursday

Time Temperature Precipitation Wind Pressure Humidity
00:00 -20°C° 0 mm 1 mps 680 mmHg 97%
01:00 -21°C° 0 mm 1 mps 680 mmHg 97%
02:00 -22°C° 0 mm 1 mps 680 mmHg 97%
03:00 -22°C° 0 mm 1 mps 680 mmHg 98%
04:00 -23°C° 0 mm 1 mps 680 mmHg 98%
05:00 -23°C° 0 mm 1 mps 680 mmHg 97%
06:00 -23°C° 0 mm 1 mps 680 mmHg 96%
07:00 -23°C° 0 mm 1 mps 680 mmHg 96%
08:00 -22°C° 0 mm 1 mps 680 mmHg 94%
09:00 -21°C° 0 mm 1 mps 680 mmHg 93%
10:00 -19°C° 0 mm 1 mps 681 mmHg 92%
11:00 -19°C° 0 mm 1 mps 680 mmHg 91%
12:00 -18°C° 0 mm 1 mps 680 mmHg 89%
13:00 -18°C° 0 mm 1 mps 680 mmHg 88%
14:00 -19°C° 0 mm 1 mps 679 mmHg 92%
15:00 -20°C° 0 mm 0 mps 679 mmHg 95%
16:00 -22°C° 0 mm 0 mps 678 mmHg 98%
17:00 -22°C° 0 mm 1 mps 678 mmHg 97%
18:00 -23°C° 0 mm 1 mps 679 mmHg 97%
19:00 -23°C° 0 mm 1 mps 679 mmHg 96%
20:00 -22°C° 0 mm 1 mps 679 mmHg 95%
21:00 -22°C° 0 mm 1 mps 678 mmHg 94%
22:00 -21°C° 0 mm 1 mps 678 mmHg 93%
23:00 -21°C° 0 mm 1 mps 678 mmHg 93%

29 January, Friday

Time Temperature Precipitation Wind Pressure Humidity
00:00 -21°C° 0 mm 1 mps 677 mmHg 92%
01:00 -24°C° 0 mm 2 mps 677 mmHg 92%
02:00 -24°C° 0 mm 2 mps 677 mmHg 92%
03:00 -24°C° 0 mm 2 mps 676 mmHg 92%
04:00 -24°C° 0 mm 2 mps 676 mmHg 92%
05:00 -24°C° 0 mm 2 mps 676 mmHg 93%
06:00 -25°C° 0 mm 2 mps 676 mmHg 94%
07:00 -25°C° 0 mm 2 mps 676 mmHg 94%
08:00 -21°C° 0 mm 1 mps 676 mmHg 94%
09:00 -19°C° 0 mm 1 mps 675 mmHg 94%
10:00 -18°C° 0 mm 1 mps 675 mmHg 93%
11:00 -17°C° 0 mm 1 mps 675 mmHg 92%
12:00 -16°C° 0 mm 1 mps 675 mmHg 91%
13:00 -15°C° 0 mm 1 mps 675 mmHg 90%
14:00 -16°C° 0 mm 1 mps 675 mmHg 91%
15:00 -17°C° 0 mm 1 mps 674 mmHg 91%
16:00 -18°C° 0 mm 1 mps 674 mmHg 92%
17:00 -18°C° 0 mm 1 mps 675 mmHg 91%
18:00 -18°C° 0 mm 1 mps 675 mmHg 90%
19:00 -18°C° 0 mm 1 mps 675 mmHg 89%
20:00 -18°C° 0 mm 1 mps 675 mmHg 87%
21:00 -17°C° 0 mm 1 mps 675 mmHg 86%
22:00 -17°C° 0 mm 1 mps 675 mmHg 84%
23:00 -17°C° 0 mm 1 mps 675 mmHg 84%

30 January, Saturday

Time Temperature Precipitation Wind Pressure Humidity
00:00 -17°C° 0 mm 1 mps 675 mmHg 83%
01:00 -16°C° 0 mm 1 mps 675 mmHg 82%
02:00 -16°C° 0 mm 1 mps 675 mmHg 81%
03:00 -16°C° 0 mm 1 mps 675 mmHg 81%
04:00 -16°C° 0 mm 1 mps 675 mmHg 81%
05:00 -17°C° 0 mm 1 mps 675 mmHg 82%
06:00 -17°C° 0 mm 1 mps 676 mmHg 83%
07:00 -17°C° 0 mm 1 mps 676 mmHg 83%
08:00 -16°C° 0 mm 1 mps 676 mmHg 85%
09:00 -15°C° 0 mm 1 mps 676 mmHg 86%
10:00 -16°C° 0 mm 2 mps 677 mmHg 88%
11:00 -13°C° 0 mm 1 mps 677 mmHg 89%
12:00 -12°C° 0 mm 1 mps 677 mmHg 89%
13:00 -11°C° 0 mm 1 mps 677 mmHg 90%
14:00 -12°C° 0 mm 1 mps 677 mmHg 90%
15:00 -13°C° 0 mm 1 mps 677 mmHg 90%
16:00 -13°C° 0 mm 1 mps 677 mmHg 89%
17:00 -14°C° 0 mm 1 mps 678 mmHg 89%
18:00 -14°C° 0 mm 1 mps 678 mmHg 89%
19:00 -14°C° 0 mm 1 mps 679 mmHg 89%
20:00 -14°C° 0 mm 1 mps 679 mmHg 89%
21:00 -14°C° 0 mm 1 mps 679 mmHg 89%
22:00 -15°C° 0 mm 1 mps 679 mmHg 89%
23:00 -15°C° 0 mm 1 mps 679 mmHg 89%

31 January, Sunday

Time Temperature Precipitation Wind Pressure Humidity
00:00 -16°C° 0 mm 1 mps 679 mmHg 89%
01:00 -16°C° 0 mm 1 mps 679 mmHg 89%
02:00 -16°C° 0 mm 1 mps 679 mmHg 87%
03:00 -16°C° 0 mm 1 mps 679 mmHg 86%
04:00 -15°C° 0 mm 1 mps 680 mmHg 84%
05:00 -15°C° 0 mm 1 mps 680 mmHg 83%
06:00 -15°C° 0 mm 1 mps 680 mmHg 82%
07:00 -15°C° 0 mm 1 mps 680 mmHg 81%
08:00 -14°C° 0 mm 1 mps 680 mmHg 82%
09:00 -15°C° 0 mm 2 mps 681 mmHg 83%
10:00 -14°C° 0 mm 2 mps 681 mmHg 83%
11:00 -13°C° 0 mm 3 mps 680 mmHg 84%
12:00 -12°C° 0 mm 3 mps 680 mmHg 84%
13:00 -10°C° 0 mm 3 mps 680 mmHg 84%
14:00 -12°C° 0 mm 3 mps 679 mmHg 85%
15:00 -13°C° 0 mm 3 mps 679 mmHg 87%
16:00 -14°C° 0 mm 3 mps 678 mmHg 89%
17:00 -14°C° 0 mm 3 mps 678 mmHg 89%
18:00 -15°C° 0 mm 3 mps 678 mmHg 90%
19:00 -15°C° 0 mm 3 mps 678 mmHg 90%
20:00 -14°C° 0 mm 2 mps 678 mmHg 89%
21:00 -12°C° 0 mm 1 mps 678 mmHg 87%
22:00 -12°C° 0 mm 0 mps 678 mmHg 86%
23:00 -12°C° 0 mm 0 mps 678 mmHg 85%
Show more